#datint,netname,site,siteID,timestamp,IntT,BattV,AirT2,AirT,AirT_Avg,AirT_Max,AirT_Min,RH_Avg,RH_Max,RH_Min,EA_Avg,Td_Avg,Td_Max,Td_Min,WindS_Smp,WindS_Avg,WindD_Avg,WindD_SD,WindS_Max,ETo,ETr,SoilT4,SoilT8,SoilVWC8,SolarW_Avg,wetstate_Avg,wetT_Avg,Precip_accum,Precip_WPG,Precip_TB
15min,AgWx,beryljct,423,04SEP2019:00:00:00,68.1,12.95,64.5,66.3,65.4,66.5,64.1,52,56,47,1.074,47.5,48.4,45.7,1.556,3.7,320,5.6,5.6,0.00013,0.00022,71.0,71.2,12,0,.,.,17.18,0.00,0.00
15min,AgWx,beryljct,423,04SEP2019:00:15:00,66.9,12.95,64.6,65.0,64.7,66.1,64.0,55,57,50,1.110,48.0,48.8,46.7,0,0.2,319,2.9,1.5,-0.00035,-0.00055,70.8,71.1,12,0,.,.,17.18,0.00,0.00
15min,AgWx,beryljct,423,04SEP2019:00:30:00,65.8,12.93,68.9,64.7,64.1,65.6,62.6,56,63,50,1.118,48.2,50.0,46.6,0.526,0.2,341,30,2.7,-0.00035,-0.00055,70.5,71.0,12,0,.,.,17.19,0.00,0.00
15min,AgWx,beryljct,423,04SEP2019:00:45:00,65.1,12.93,61.5,62.9,64.7,66.8,62.9,56,63,48,1.235,48.5,50.2,46.3,2.346,0.7,111,18,2.5,-0.00027,-0.00040,70.3,71.0,13,0,.,.,17.19,0.00,0.00
15min,AgWx,beryljct,423,04SEP2019:01:00:00,64.4,12.9,61.4,61.6,62.1,63.0,61.2,60,66,53,1.225,48.2,50.3,45.6,0.658,1.1,150,0.1,2.6,-0.00021,-0.00029,70.1,71.0,12,0,.,.,17.19,0.00,0.00
15min,AgWx,beryljct,423,04SEP2019:01:15:00,63.6,12.91,63.8,63.2,61.6,63.2,60.7,66,70,58,1.150,50.0,50.9,48.3,1.622,0.6,150,0.1,1.6,-0.00028,-0.00041,69.8,70.9,12,0,.,.,17.19,0.00,0.00
15min,AgWx,beryljct,423,04SEP2019:01:30:00,63.0,12.9,61.0,62.0,62.1,63.4,60.7,62,70,56,1.162,48.9,51.0,47.1,1.162,0.8,150,0.1,1.5,-0.00025,-0.00036,69.6,70.8,12,0,.,.,17.19,0.00,0.00
15min,AgWx,beryljct,423,04SEP2019:01:45:00,62.6,12.9,61.1,62.1,61.7,64.2,59.6,61,70,51,1.093,47.9,50.0,45.7,2.499,2.3,174,15,3.6,-0.00007,-0.00006,69.4,70.8,12,0,.,.,17.19,0.00,0.00
15min,AgWx,beryljct,423,04SEP2019:02:00:00,62.2,12.88,59.6,59.7,60.6,62.1,59.0,61,66,56,1.124,47.2,48.0,46.0,0.57,1.2,188,0.1,2.4,-0.00019,-0.00026,69.2,70.7,12,0,.,.,17.19,0.00,0.00
15min,AgWx,beryljct,423,04SEP2019:02:15:00,61.3,12.88,55.6,56.3,56.9,59.7,55.8,72,77,64,1.190,47.8,49.2,45.6,1.184,1.1,188,0.2,1.9,-0.00022,-0.00030,69.0,70.6,12,0,.,.,17.19,0.00,0.00
15min,AgWx,beryljct,423,04SEP2019:02:30:00,60.4,12.87,57.7,57.7,57.0,58.4,55.6,75,80,71,1.230,49.1,50.1,47.7,0.373,0.7,189,0.6,2.2,-0.00026,-0.00038,68.8,70.6,12,0,.,.,17.19,0.00,0.00
15min,AgWx,beryljct,423,04SEP2019:02:45:00,59.7,12.87,59.0,57.4,57.4,57.7,56.9,75,81,70,1.140,49.7,51.1,48.1,0,0.4,176,38,2.6,-0.00029,-0.00045,68.6,70.5,12,0,.,.,17.19,0.00,0.00
15min,AgWx,beryljct,423,04SEP2019:03:00:00,59.3,12.85,55.6,57.2,57.9,58.3,57.2,69,71,67,1.130,47.7,48.4,47.2,0,0.1,76,0.0,1.1,-0.00034,-0.00053,68.4,70.4,12,0,.,.,17.19,0.00,0.00
15min,AgWx,beryljct,423,04SEP2019:03:15:00,58.9,12.86,56.5,56.3,56.4,57.1,55.8,77,81,71,1.233,49.4,50.8,48.0,0,0.9,77,0.4,2.2,-0.00024,-0.00035,68.2,70.4,12,0,.,.,17.19,0.00,0.00
15min,AgWx,beryljct,423,04SEP2019:03:30:00,58.6,12.85,56.5,57.1,56.7,57.1,56.2,78,80,72,1.148,49.9,50.6,48.2,1.228,0.1,77,0.2,1.3,-0.00032,-0.00051,68.0,70.3,12,0,.,.,17.20,0.00,0.00
15min,AgWx,beryljct,423,04SEP2019:03:45:00,58.5,12.85,56.6,56.4,56.3,57.0,56.0,76,81,72,1.147,48.6,50.3,47.5,0,0.2,76,0.0,1.1,-0.00031,-0.00049,67.8,70.2,12,0,.,.,17.19,0.00,0.00
15min,AgWx,beryljct,423,04SEP2019:04:00:00,58.6,12.84,58.5,58.0,56.9,58.0,56.4,73,76,67,1.096,48.5,49.4,47.0,0.57,0.7,76,0.0,1.4,-0.00026,-0.00039,67.6,70.1,12,0,.,.,17.19,0.00,0.00
15min,AgWx,beryljct,423,04SEP2019:04:15:00,58.7,12.84,57.4,57.2,57.9,58.3,57.2,70,74,66,1.158,48.4,49.4,46.9,2.258,0.5,76,0.0,2.3,-0.00029,-0.00044,67.4,70.1,12,0,.,.,17.19,0.00,0.00
15min,AgWx,beryljct,423,04SEP2019:04:30:00,58.1,12.84,53.6,53.8,54.7,57.2,53.8,83,86,72,1.212,49.8,50.5,48.1,1.578,2.6,104,13,4.6,-0.00014,-0.00017,67.3,69.9,12,0,.,.,17.20,0.00,0.00
15min,AgWx,beryljct,423,04SEP2019:04:45:00,57.4,12.84,56.1,55.2,54.2,55.2,53.7,85,86,80,1.188,49.7,50.0,49.1,3.113,0.7,128,26,3.3,-0.00026,-0.00039,67.1,69.9,12,0,.,.,17.20,0.00,0.00
15min,AgWx,beryljct,423,04SEP2019:05:00:00,57.1,12.83,56.3,56.9,56.0,57.1,55.2,77,80,72,1.178,48.8,49.1,48.0,0.723,1.1,211,0.1,3.2,-0.00022,-0.00031,67.0,69.8,12,0,.,.,17.20,0.00,0.00
15min,AgWx,beryljct,423,04SEP2019:05:15:00,57.1,12.83,55.3,55.7,55.6,56.8,54.6,79,84,74,1.193,49.2,49.9,48.5,0.614,2.2,157,16,5.3,-0.00015,-0.00019,66.8,69.7,12,0,.,.,17.20,0.00,0.00
15min,AgWx,beryljct,423,04SEP2019:05:30:00,57.3,12.83,56.7,57.0,56.3,57.9,55.4,75,81,65,1.086,48.4,49.8,46.3,2.85,1.4,150,3.7,3.2,-0.00020,-0.00028,66.6,69.6,12,0,.,.,17.20,0.00,0.00
15min,AgWx,beryljct,423,04SEP2019:05:45:00,57.7,12.83,58.8,58.4,57.8,58.6,56.5,69,74,66,1.171,47.8,48.8,46.7,2.565,4.2,166,9.0,6.0,0.00002,0.00006,66.5,69.6,12,0,.,.,17.19,0.00,0.00
15min,AgWx,beryljct,423,04SEP2019:06:00:00,58.3,12.83,55.5,56.0,58.2,59.4,56.0,71,81,64,1.233,48.7,50.2,47.0,3.069,1.9,163,26,4.8,-0.00014,-0.00018,66.4,69.4,12,0,.,.,17.20,0.01,0.00
15min,AgWx,beryljct,423,04SEP2019:06:15:00,58.6,12.82,58.6,58.4,56.8,58.5,55.7,78,82,72,1.198,50.0,50.6,49.2,2.521,2.4,155,32,4.4,-0.00013,-0.00016,66.2,69.4,12,0,.,.,17.20,0.00,0.00
15min,AgWx,beryljct,423,04SEP2019:06:30:00,59.0,12.82,58.8,58.7,59.6,61.1,58.2,69,77,61,1.220,49.4,50.9,47.3,1.096,1.1,197,4.1,2.4,0.00011,0.00019,66.1,69.3,12,0,.,.,17.19,0.00,0.00
15min,AgWx,beryljct,423,04SEP2019:06:45:00,59.3,12.82,58.9,58.9,58.7,59.2,58.3,77,80,72,1.254,51.4,52.8,49.7,4.669,1.5,191,8.0,4.7,0.00011,0.00018,66.0,69.2,12,0,.,.,17.19,0.00,0.00
15min,AgWx,beryljct,423,04SEP2019:07:00:00,59.4,12.82,58.8,58.7,58.0,58.9,57.5,77,80,72,1.215,50.8,51.5,49.6,1.206,3.7,141,3.3,5.6,0.00024,0.00041,65.9,69.1,12,1,.,.,17.19,0.00,0.00
15min,AgWx,beryljct,423,04SEP2019:07:15:00,59.5,12.82,59.7,59.5,58.6,59.5,58.0,74,78,68,1.184,50.3,51.2,49.1,1.513,1.3,137,0.4,3.0,0.00012,0.00020,65.8,69.0,12,3,.,.,17.19,0.00,0.00
15min,AgWx,beryljct,423,04SEP2019:07:30:00,59.8,12.82,60.4,59.7,59.5,60.5,58.7,72,79,64,1.261,50.4,52.5,48.1,0.57,1.3,137,0.3,2.6,0.00022,0.00031,65.7,68.9,12,17,.,.,17.19,0.00,0.00
15min,AgWx,beryljct,423,04SEP2019:07:45:00,60.0,12.82,59.0,58.8,58.6,59.8,58.1,80,85,72,1.319,52.5,53.6,50.9,2.981,2.4,164,89,3.6,0.00030,0.00041,65.6,68.9,12,27,.,.,17.19,0.00,0.00
15min,AgWx,beryljct,423,04SEP2019:08:00:00,60.3,12.87,59.4,59.5,59.3,59.9,58.8,74,78,69,1.254,50.9,52.0,49.8,2.806,3.1,356,23,4.3,0.00052,0.00070,65.6,68.8,12,49,.,.,17.19,0.00,0.00
15min,AgWx,beryljct,423,04SEP2019:08:15:00,60.7,12.9,59.2,59.0,59.6,61.1,58.8,72,80,60,1.346,50.6,52.9,47.2,0,1.5,13,5.1,4.3,0.00064,0.00077,65.5,68.7,12,80,.,.,17.19,0.00,0.00
15min,AgWx,beryljct,423,04SEP2019:08:30:00,61.1,12.94,60.7,60.6,60.1,60.6,59.1,74,80,68,1.324,51.9,52.9,49.9,0,0.3,12,2.6,1.7,0.00060,0.00066,65.5,68.6,12,86,.,.,17.19,0.00,0.00
15min,AgWx,beryljct,423,04SEP2019:08:45:00,61.7,13,62.6,62.3,60.9,62.3,60.5,71,75,64,1.232,51.5,52.7,50.1,2.543,0.8,14,4.5,2.7,0.00085,0.00095,65.4,68.6,12,120,.,.,17.19,0.00,0.00
15min,AgWx,beryljct,423,04SEP2019:09:00:00,63.1,13.07,63.2,63.3,63.0,64.0,62.1,67,74,61,1.469,52.0,54.9,50.3,2.455,2.0,0.3,57,4.3,0.00141,0.00164,65.4,68.5,12,206,.,.,17.19,0.00,0.00
15min,AgWx,beryljct,423,04SEP2019:09:15:00,64.4,13.08,63.4,64.3,63.9,64.8,63.2,68,75,61,1.469,53.3,55.2,51.0,3.486,2.0,175,44,3.8,0.00105,0.00125,65.4,68.4,12,130,.,.,17.19,0.00,0.00
15min,AgWx,beryljct,423,04SEP2019:09:30:00,65.5,13.33,67.6,67.0,64.6,67.0,63.7,70,78,56,1.269,54.5,56.8,50.8,6.182,5.2,46,29,7.1,0.00182,0.00223,65.4,68.3,12,250,.,.,17.18,0.00,0.00
15min,AgWx,beryljct,423,04SEP2019:09:45:00,67.0,13.26,64.2,65.1,67.4,68.5,65.1,56,67,49,1.414,51.2,53.9,48.5,3.551,5.2,36,47,8.1,0.00192,0.00251,65.5,68.3,12,206,.,.,17.18,0.00,0.00
15min,AgWx,beryljct,423,04SEP2019:10:00:00,67.2,13.28,65.1,65.2,65.0,65.3,64.7,67,75,64,1.392,53.8,56.8,52.6,4.384,4.9,152,31,8.6,0.00134,0.00174,65.5,68.2,12,143,.,.,17.18,0.00,0.00
15min,AgWx,beryljct,423,04SEP2019:10:15:00,67.6,14.19,68.8,68.7,66.3,68.7,65.0,62,68,55,1.354,53.1,55.1,51.7,1.096,2.3,179,25,5.1,0.00270,0.00306,65.5,68.1,12,410,.,.,17.18,0.00,0.00
15min,AgWx,beryljct,423,04SEP2019:10:30:00,70.9,14.1,69.8,70.1,69.6,70.2,68.7,51,58,47,1.167,50.9,54.1,48.7,3.003,1.5,212,87,3.6,0.00395,0.00437,63.2,68.1,12,602,.,.,17.18,0.00,0.00
15min,AgWx,beryljct,423,04SEP2019:10:45:00,74.2,14.03,73.4,73.5,71.6,73.5,70.0,50,54,47,1.397,51.9,54.7,48.7,4.779,4.3,326,8.1,7.3,0.00448,0.00522,62.9,68.0,12,646,.,.,17.17,0.00,0.00
15min,AgWx,beryljct,423,04SEP2019:11:00:00,77.1,14.07,75.7,75.9,74.8,75.9,73.5,43,49,37,1.259,50.5,53.4,47.3,4.538,4.1,320,10,6.4,0.00493,0.00577,62.7,68.0,12,686,.,.,17.17,0.00,0.00
15min,AgWx,beryljct,423,04SEP2019:11:15:00,79.8,13.97,80.7,78.1,77.1,78.3,75.9,36,44,33,1.105,48.1,53.0,45.5,3.573,3.1,348,13,5.9,0.00519,0.00600,61.9,68.0,12,713,.,.,17.16,0.00,0.00
15min,AgWx,beryljct,423,04SEP2019:11:30:00,82.1,13.9,78.7,78.9,78.3,79.1,77.8,38,45,33,1.393,50.7,54.8,47.0,1.447,2.2,14,31,4.1,0.00533,0.00601,61.9,67.9,12,741,.,.,17.16,0.00,0.00
15min,AgWx,beryljct,423,04SEP2019:11:45:00,84.2,13.87,78.1,78.6,79.1,79.8,78.6,43,52,35,1.534,54.7,59.4,49.0,4.319,2.9,52,20,6.4,0.00562,0.00639,60.7,67.9,12,770,.,.,17.16,0.00,0.00
15min,AgWx,beryljct,423,04SEP2019:12:00:00,85.2,13.86,79.7,80.1,79.5,80.6,78.5,43,52,35,1.433,55.1,60.6,49.1,3.42,3.3,57,21,4.9,0.00584,0.00667,61.4,67.8,12,795,.,.,17.15,0.00,0.00
15min,AgWx,beryljct,423,04SEP2019:12:15:00,86.1,13.41,82.0,81.5,80.5,81.5,80.0,41,48,35,1.694,54.8,59.2,50.9,2.192,3.4,75,16,5.7,0.00606,0.00694,61.5,67.8,12,819,.,.,17.16,0.00,0.00
15min,AgWx,beryljct,423,04SEP2019:12:30:00,87.3,13.48,82.6,83.2,82.1,83.5,81.5,38,47,31,1.429,54.1,59.6,49.4,1.995,1.6,52,30,3.2,0.00607,0.00673,62.1,67.8,12,834,.,.,17.15,0.00,0.00
15min,AgWx,beryljct,423,04SEP2019:12:45:00,89.0,13.46,83.9,84.0,83.5,84.0,83.0,35,42,27,1.076,53.0,58.4,46.5,0.614,1.8,48,13,4.5,0.00634,0.00706,65.1,67.8,12,862,.,.,17.15,0.00,0.00
15min,AgWx,beryljct,423,04SEP2019:13:00:00,90.8,13.31,84.8,85.5,84.6,85.9,84.0,33,44,26,1.408,52.1,60.2,46.1,4.099,2.8,39,16,7.0,0.00660,0.00750,64.1,67.8,12,880,.,.,17.15,0.00,0.00
15min,AgWx,beryljct,423,04SEP2019:13:15:00,91.9,13.33,84.3,84.7,85.4,86.6,84.7,33,45,27,1.715,52.8,61.2,47.4,3.902,3.7,85,30,7.8,0.00718,0.00827,69.2,67.8,12,934,.,.,17.15,0.00,0.00
15min,AgWx,beryljct,423,04SEP2019:13:30:00,91.8,13.3,84.6,85.3,84.5,85.4,83.8,40,49,32,1.725,57.8,62.7,52.2,4.121,4.3,84,15,7.3,0.00659,0.00766,69.8,67.9,12,859,.,.,17.15,0.00,0.00
15min,AgWx,beryljct,423,04SEP2019:13:45:00,92.0,13.29,84.9,85.2,85.5,86.6,84.7,37,45,24,1.673,55.8,61.5,45.8,6.664,4.9,59,16,8.9,0.00651,0.00770,70.4,67.9,12,825,.,.,17.16,0.00,0.00
15min,AgWx,beryljct,423,04SEP2019:14:00:00,92.7,13.34,85.2,85.5,86.6,87.9,85.2,35,43,28,1.413,55.7,61.6,49.4,8.31,4.4,112,42,9.8,0.00638,0.00751,71.1,68.0,12,797,.,.,17.15,0.00,0.00
15min,AgWx,beryljct,423,04SEP2019:14:15:00,91.4,13.35,83.3,82.8,83.5,85.5,80.8,36,49,27,1.301,53.4,60.2,47.7,12.08,6.9,150,9.5,12.7,0.00358,0.00486,71.7,68.0,12,313,.,.,17.16,0.01,0.00
15min,AgWx,beryljct,423,04SEP2019:14:30:00,88.7,13.37,79.2,80.2,80.8,82.8,79.6,42,48,35,1.628,55.3,58.3,51.5,7.804,10.6,142,10,16.8,0.00409,0.00568,72.2,68.1,12,362,.,.,17.16,0.00,0.00
15min,AgWx,beryljct,423,04SEP2019:14:45:00,86.8,13.43,83.3,84.9,81.4,85.0,79.8,43,49,30,1.241,56.4,59.1,49.7,7.453,8.0,146,14,10.4,0.00467,0.00600,72.7,68.2,12,530,.,.,17.17,0.00,0.00
15min,AgWx,beryljct,423,04SEP2019:15:00:00,88.8,13.33,88.2,88.2,87.8,89.1,84.7,29,35,23,1.583,51.1,57.0,45.3,5.502,8.2,177,20,13.2,0.00871,0.01068,73.0,68.3,12,1044,.,.,17.16,0.00,0.00
15min,AgWx,beryljct,423,04SEP2019:15:15:00,91.5,13.28,86.9,87.3,88.9,89.6,87.3,26,33,20,1.190,49.2,55.7,42.7,7.125,6.6,191,25,11.4,0.00638,0.00801,73.3,68.5,12,735,.,.,17.16,0.00,0.00
15min,AgWx,beryljct,423,04SEP2019:15:30:00,91.7,13.29,88.9,87.5,86.7,87.9,85.2,28,34,23,1.079,49.4,53.9,45.2,4.384,7.7,189,19,12.9,0.00543,0.00711,73.5,68.6,12,591,.,.,17.16,0.00,0.00
15min,AgWx,beryljct,423,04SEP2019:15:45:00,91.9,13.31,88.8,88.5,87.4,88.5,86.1,28,41,22,1.039,50.0,59.6,44.4,3.201,7.3,171,17,13.3,0.00644,0.00813,73.9,68.7,12,751,.,.,17.16,0.00,0.00
15min,AgWx,beryljct,423,04SEP2019:16:00:00,92.9,13.24,87.8,88.1,87.8,88.7,86.7,31,41,23,1.437,53.3,61.0,46.2,9.05,6.2,170,29,11.9,0.00673,0.00821,74.1,68.8,12,811,.,.,17.16,0.00,0.00
15min,AgWx,beryljct,423,04SEP2019:16:15:00,93.8,13.24,83.7,85.7,88.3,91.2,85.3,29,44,19,1.599,51.6,61.1,43.1,3.968,5.5,171,36,9.3,0.00527,0.00661,74.4,69.0,12,619,.,.,17.16,0.00,0.00
15min,AgWx,beryljct,423,04SEP2019:16:30:00,92.0,13.29,80.9,81.6,82.3,85.6,81.0,42,45,37,1.587,57.1,59.5,53.8,7.98,6.8,144,9.0,9.3,0.00299,0.00409,74.7,69.1,12,288,.,.,17.16,0.01,0.00
15min,AgWx,beryljct,423,04SEP2019:16:45:00,90.5,13.33,84.9,85.6,84.2,86.1,81.3,39,45,30,1.625,56.3,58.5,50.9,5.612,7.5,145,11,11.3,0.00531,0.00673,75.0,69.2,12,635,.,.,17.16,0.00,0.00
15min,AgWx,beryljct,423,04SEP2019:17:00:00,90.5,13.33,85.1,86.9,86.2,87.9,84.6,33,41,27,1.430,53.9,59.0,49.0,5.985,6.1,167,25,11.3,0.00429,0.00556,75.3,69.4,12,499,.,.,17.16,0.00,0.00
15min,AgWx,beryljct,423,04SEP2019:17:15:00,91.1,13.26,83.1,83.5,85.5,86.6,83.5,37,46,28,1.726,55.9,61.8,49.3,6.467,8.1,147,14,12.5,0.00550,0.00705,75.5,69.5,12,635,.,.,17.16,0.00,0.00
15min,AgWx,beryljct,423,04SEP2019:17:30:00,90.8,13.31,85.7,84.3,84.0,85.0,83.2,38,45,32,1.274,55.9,59.9,51.0,5.568,7.9,155,13,11.6,0.00383,0.00521,75.6,69.7,12,412,.,.,17.16,0.00,0.00
15min,AgWx,beryljct,423,04SEP2019:17:45:00,89.7,13.29,84.7,85.0,84.8,85.8,84.1,33,42,27,1.453,52.8,58.4,47.9,6.072,7.1,152,9.0,11.9,0.00371,0.00507,75.8,69.8,12,405,.,.,17.16,0.00,0.00
15min,AgWx,beryljct,423,04SEP2019:18:00:00,90.1,13.3,86.9,86.7,87.4,89.2,85.2,29,37,23,1.164,50.8,57.1,46.3,11.25,5.4,175,21,11.3,0.00335,0.00453,75.9,69.9,11,373,.,.,17.16,0.00,0.00
15min,AgWx,beryljct,423,04SEP2019:18:15:00,89.5,13.37,80.9,81.5,83.7,87.2,81.5,36,44,25,1.578,53.6,58.5,47.2,5.349,5.9,141,23,11.5,0.00258,0.00367,76.0,70.1,12,281,.,.,17.17,0.00,0.00
15min,AgWx,beryljct,423,04SEP2019:18:30:00,87.6,13.3,77.1,78.1,79.5,81.5,77.7,44,46,38,1.437,55.5,58.5,52.6,4.516,6.2,125,12,10.1,0.00158,0.00249,76.0,70.2,12,158,.,.,17.17,0.00,0.00
15min,AgWx,beryljct,423,04SEP2019:18:45:00,84.9,13.24,79.0,78.0,78.2,79.8,77.4,43,45,37,1.438,53.8,54.9,51.3,9.38,7.0,106,10,10.8,0.00130,0.00227,76.0,70.3,12,107,.,.,17.17,0.00,0.00
15min,AgWx,beryljct,423,04SEP2019:19:00:00,82.8,13.18,77.1,76.6,77.5,78.3,76.6,42,45,40,1.336,52.5,54.6,51.4,14.64,11.8,102,14,16.6,0.00173,0.00321,75.9,70.4,12,63,.,.,17.18,0.00,0.00
15min,AgWx,beryljct,423,04SEP2019:19:15:00,81.0,13.14,75.9,76.1,76.3,76.7,75.8,43,45,42,1.330,52.4,53.1,51.8,4.801,9.1,92,12,15.5,0.00088,0.00118,75.8,70.5,12,41,.,.,17.18,0.00,0.00
15min,AgWx,beryljct,423,04SEP2019:19:30:00,79.6,13.11,76.5,76.1,76.1,76.5,75.6,43,45,42,1.316,52.1,52.9,51.4,6.927,7.1,96,13,10.7,0.00069,0.00096,75.6,70.6,12,31,.,.,17.17,0.00,0.00
15min,AgWx,beryljct,423,04SEP2019:19:45:00,78.8,13.1,77.8,77.4,76.7,77.5,76.1,41,43,39,1.247,51.3,52.0,50.3,15.83,8.0,107,16,15.8,0.00079,0.00108,75.4,70.7,11,26,.,.,17.18,0.00,0.00
15min,AgWx,beryljct,423,04SEP2019:20:00:00,78.7,13.08,76.8,77.1,77.7,78.1,77.1,39,40,37,1.259,50.6,51.3,49.9,12.67,12.4,134,10,18.8,0.00113,0.00145,75.1,70.8,12,10,.,.,17.18,0.00,0.00
15min,AgWx,beryljct,423,04SEP2019:20:15:00,78.3,13.08,74.9,75.5,76.3,77.1,75.5,41,43,40,1.298,51.1,51.7,50.5,9.12,13.1,119,7.6,18.7,0.00106,0.00136,74.9,70.9,11,2,.,.,17.17,0.00,0.00
15min,AgWx,beryljct,423,04SEP2019:20:30:00,77.3,13.06,72.1,72.9,74.1,75.5,72.9,46,48,43,1.330,51.8,52.2,51.4,8.2,9.3,115,11,14.4,0.00072,0.00097,74.6,71.0,12,0,.,.,17.18,0.00,0.00
15min,AgWx,beryljct,423,04SEP2019:20:45:00,75.8,13.06,72.2,71.8,72.0,72.8,71.3,50,52,48,1.301,52.4,52.8,51.6,10,8.3,136,15,12.9,0.00056,0.00077,74.3,71.1,12,0,.,.,17.18,0.00,0.00
15min,AgWx,beryljct,423,04SEP2019:21:00:00,74.9,13.05,73.1,73.4,72.9,73.4,71.8,46,49,44,1.244,50.8,51.5,50.1,8.18,10.4,138,12,17.2,0.00076,0.00100,74.1,71.1,11,0,.,.,17.18,0.00,0.00
15min,AgWx,beryljct,423,04SEP2019:21:15:00,74.3,13.04,71.6,72.3,73.2,74.2,72.1,45,49,42,1.293,50.6,51.8,49.6,4.187,4.7,191,85,12.6,0.00033,0.00051,73.8,71.1,12,0,.,.,17.18,0.00,0.00
15min,AgWx,beryljct,423,04SEP2019:21:30:00,73.8,13.01,73.6,74.4,73.0,74.6,71.4,45,51,41,1.192,50.5,52.4,49.1,5.656,4.9,6.9,40,8.0,0.00034,0.00052,73.5,71.2,11,0,.,.,17.18,0.00,0.00
15min,AgWx,beryljct,423,04SEP2019:21:45:00,73.5,13.03,72.3,73.1,73.0,74.7,71.5,45,49,40,1.193,50.1,51.4,49.0,6.927,4.4,128,24,7.7,0.00030,0.00047,73.2,71.2,12,0,.,.,17.18,0.00,0.00
15min,AgWx,beryljct,423,04SEP2019:22:00:00,73.3,13.02,71.1,72.0,72.3,73.2,71.5,45,47,43,1.232,49.8,50.4,49.1,2.105,5.5,152,6.2,7.6,0.00041,0.00061,73.0,71.2,12,0,.,.,17.18,0.00,0.00
15min,AgWx,beryljct,423,04SEP2019:22:15:00,73.0,13.02,66.9,70.6,72.3,74.1,70.6,46,55,40,1.396,50.1,53.5,48.4,3.398,2.3,30,49,7.3,0.00000,0.00006,72.7,71.2,12,0,.,.,17.18,0.00,0.00
15min,AgWx,beryljct,423,04SEP2019:22:30:00,72.5,13.01,69.3,70.6,70.3,71.2,67.9,52,63,48,1.296,51.6,54.8,50.2,5.524,5.5,272,42,9.5,0.00032,0.00047,72.4,71.2,12,0,.,.,17.18,0.00,0.00
15min,AgWx,beryljct,423,04SEP2019:22:45:00,72.3,13.01,70.0,70.8,71.0,72.1,69.9,49,53,45,1.314,51.0,52.3,49.4,4.012,4.7,266,65,7.9,0.00027,0.00042,72.2,71.2,11,0,.,.,17.18,0.00,0.00
15min,AgWx,beryljct,423,04SEP2019:23:00:00,71.8,12.99,69.7,68.7,69.5,70.7,68.7,55,58,51,1.381,52.9,53.6,51.9,4.187,4.3,300,7.8,6.0,0.00017,0.00028,72.0,71.2,12,0,.,.,17.18,0.00,0.00
15min,AgWx,beryljct,423,04SEP2019:23:15:00,71.1,12.99,69.1,69.1,69.0,70.3,68.4,56,59,51,1.330,52.8,53.6,51.3,5.327,3.0,279,28,5.8,0.00003,0.00009,71.7,71.2,11,0,.,.,17.18,0.00,0.00
15min,AgWx,beryljct,423,04SEP2019:23:30:00,70.6,12.98,68.7,68.3,68.6,69.5,67.8,57,60,52,1.360,52.6,53.3,51.4,2.565,3.3,300,10,5.5,0.00007,0.00014,71.5,71.2,12,0,.,.,17.18,0.00,0.00
15min,AgWx,beryljct,423,04SEP2019:23:45:00,70.0,12.97,67.7,67.5,67.7,69.3,66.7,58,61,53,1.335,52.4,52.9,51.2,2.653,4.0,324,18,5.9,0.00012,0.00021,71.3,71.2,12,0,.,.,17.18,0.00,0.00
15min,AgWx,beryljct,423,05SEP2019:00:00:00,69.4,12.95,67.1,67.5,66.9,67.5,66.0,60,64,58,1.347,52.7,53.5,52.3,3.793,3.8,299,17,4.9,0.00008,0.00016,71.1,71.1,11,0,.,.,17.19,0.00,0.00
15min,AgWx,beryljct,423,05SEP2019:00:15:00,68.8,12.95,70.9,68.8,67.6,68.8,67.0,58,60,54,1.299,52.4,52.8,51.6,0.986,1.3,258,3.9,4.4,-0.00018,-0.00023,70.9,71.1,12,0,.,.,17.19,0.00,0.00
15min,AgWx,beryljct,423,05SEP2019:00:30:00,68.2,12.94,66.0,65.1,66.8,69.7,64.6,60,68,51,1.364,52.6,54.0,50.6,0,0.9,256,0.1,2.7,-0.00023,-0.00033,70.8,71.0,12,0,.,.,17.19,0.00,0.00
15min,AgWx,bigpiney,439,04SEP2019:00:00:00,49.6,12.67,47.1,46.8,46.5,46.8,45.9,83,85,82,0.887,41.7,42.1,41.4,4.341,5.5,232,6.3,6.8,0.00012,0.00015,52.2,50.6,41,0,0,0.0,4.17,0.00,0.00
15min,AgWx,bigpiney,439,04SEP2019:00:15:00,49.5,12.66,50.0,49.6,47.8,49.6,46.2,80,84,76,0.915,41.9,42.5,40.6,1.71,2.4,264,39,5.1,0.00009,0.00013,52.2,50.7,41,0,0,0.0,4.17,0.00,0.00
15min,AgWx,bigpiney,439,04SEP2019:00:30:00,49.5,12.65,50.5,50.2,48.7,50.2,47.2,77,81,74,0.913,41.8,42.4,40.6,0,0.2,239,13,1.6,0.00002,0.00003,52.1,50.6,41,0,0,0.0,4.17,0.00,0.00
15min,AgWx,bigpiney,439,04SEP2019:00:45:00,49.4,12.64,48.9,48.4,49.2,50.2,48.4,79,83,74,0.962,43.0,43.6,42.1,0.986,0.7,11,42,1.6,0.00003,0.00006,52.1,50.6,41,0,0,0.0,4.17,0.00,0.00
15min,AgWx,bigpiney,439,04SEP2019:01:00:00,49.2,12.63,45.7,45.9,47.4,48.6,45.3,80,83,75,0.825,41.6,43.7,38.6,4.867,3.9,207,19,5.9,0.00012,0.00016,52.0,50.6,41,0,0,0.0,4.17,0.00,0.00
15min,AgWx,bigpiney,439,04SEP2019:01:15:00,48.9,12.63,42.9,43.0,45.2,47.0,43.0,80,84,78,0.788,39.3,40.9,37.6,0,3.6,232,20,5.8,0.00011,0.00015,52.0,50.6,41,0,0,0.0,4.17,0.00,0.00
15min,AgWx,bigpiney,439,04SEP2019:01:30:00,48.2,12.6,40.3,42.5,43.4,44.9,42.1,84,88,79,0.727,38.9,41.0,36.4,3.705,1.3,181,14,5.3,0.00004,0.00006,51.9,50.7,41,0,0,0.0,4.17,0.00,0.00
15min,AgWx,bigpiney,439,04SEP2019:01:45:00,47.4,12.6,41.4,40.8,40.8,42.2,40.2,86,88,79,0.751,36.8,37.5,35.9,4.056,3.5,205,5.7,4.4,0.00007,0.00009,51.9,50.7,41,0,0,0.0,4.17,0.00,0.00
15min,AgWx,bigpiney,439,04SEP2019:02:00:00,46.5,12.59,41.5,41.6,40.9,41.6,40.4,87,89,86,0.792,37.3,38.6,36.6,1.71,2.3,207,13,4.0,0.00005,0.00007,51.8,50.7,41,0,0,0.0,4.17,0.00,0.00
15min,AgWx,bigpiney,439,04SEP2019:02:15:00,45.8,12.58,41.2,44.3,44.2,46.7,41.4,83,89,73,0.790,39.3,41.2,35.7,2.653,1.6,203,5.4,3.4,0.00005,0.00008,51.8,50.7,41,0,0,0.0,4.17,0.00,0.00
15min,AgWx,bigpiney,439,04SEP2019:02:30:00,45.1,12.57,40.6,40.4,42.4,45.8,40.4,81,85,74,0.716,37.1,40.1,34.9,4.538,3.9,207,9.8,4.8,0.00010,0.00013,51.7,50.7,41,0,0,0.0,4.17,0.00,0.00
15min,AgWx,bigpiney,439,04SEP2019:02:45:00,44.5,12.56,39.8,38.8,39.8,40.7,38.8,86,88,84,0.692,36.0,37.3,35.1,4.889,4.6,205,5.6,5.3,0.00008,0.00010,51.7,50.6,41,0,0,0.0,4.17,0.00,0.00
15min,AgWx,bigpiney,439,04SEP2019:03:00:00,43.9,12.55,38.3,38.6,39.4,40.1,38.6,86,88,84,0.681,35.6,36.9,34.5,4.253,4.0,206,14,4.9,0.00007,0.00009,51.6,50.6,41,0,0,0.0,4.17,0.00,0.00
15min,AgWx,bigpiney,439,04SEP2019:03:15:00,43.4,12.54,38.5,37.9,38.5,39.2,37.9,88,89,86,0.689,35.3,36.2,34.6,2.017,3.1,210,17,4.4,0.00005,0.00007,51.5,50.6,41,0,0,0.0,4.17,0.00,0.00
15min,AgWx,bigpiney,439,04SEP2019:03:30:00,43.0,12.52,38.6,38.2,38.0,38.2,37.8,90,90,89,0.706,35.2,35.6,34.8,3.025,1.8,182,22,3.1,0.00003,0.00005,51.5,50.7,41,0,0,0.0,4.17,0.00,0.00
15min,AgWx,bigpiney,439,04SEP2019:03:45:00,42.6,12.52,36.5,36.8,37.9,38.6,36.8,90,91,89,0.664,35.2,36.2,34.1,3.464,3.1,204,19,3.9,0.00004,0.00006,51.4,50.6,41,0,0,0.0,4.17,0.00,0.00
15min,AgWx,bigpiney,439,04SEP2019:04:00:00,42.1,12.5,39.9,38.9,37.4,38.9,36.7,92,93,90,0.745,35.2,37.0,34.0,4.428,3.7,288,15,4.4,0.00004,0.00005,51.3,50.7,41,0,0,0.0,4.17,0.00,0.00
15min,AgWx,bigpiney,439,04SEP2019:04:15:00,41.8,12.5,41.7,40.9,40.9,41.7,39.0,91,93,89,0.784,38.6,39.4,37.1,2.74,3.6,280,22,4.6,0.00004,0.00006,51.2,50.6,41,0,0,0.0,4.17,0.00,0.00
15min,AgWx,bigpiney,439,04SEP2019:04:30:00,41.8,12.49,42.3,42.5,42.6,43.5,40.9,89,92,86,0.800,39.6,40.8,38.4,0.548,2.3,291,16,4.1,0.00004,0.00006,51.2,50.6,41,0,0,0.0,4.17,0.00,0.00
15min,AgWx,bigpiney,439,04SEP2019:04:45:00,41.7,12.47,42.5,42.1,42.3,42.7,41.8,88,89,86,0.791,38.9,39.6,38.2,2.455,1.1,257,18,2.5,0.00003,0.00004,51.1,50.6,41,0,0,0.0,4.17,0.00,0.00
15min,AgWx,bigpiney,439,04SEP2019:05:00:00,41.4,12.47,41.6,40.9,41.6,43.1,40.1,87,89,83,0.767,37.9,39.9,35.3,0,1.1,279,9.2,3.4,0.00003,0.00005,51.1,50.6,41,0,0,0.0,4.17,0.00,0.00
15min,AgWx,bigpiney,439,04SEP2019:05:15:00,41.1,12.47,39.9,39.5,41.4,43.1,39.5,88,90,85,0.726,38.1,40.1,36.1,3.113,1.1,200,3.5,3.6,0.00003,0.00004,51.0,50.6,41,0,1,0.0,4.17,0.00,0.00
15min,AgWx,bigpiney,439,04SEP2019:05:30:00,40.7,12.46,37.8,39.5,39.9,40.7,39.1,89,91,87,0.722,36.9,38.2,35.7,3.42,3.3,215,10,4.2,0.00005,0.00007,50.9,50.6,41,0,1,0.0,4.17,0.00,0.00
15min,AgWx,bigpiney,439,04SEP2019:05:45:00,40.3,12.45,36.7,37.8,38.9,39.7,37.8,88,90,85,0.655,35.7,36.7,33.7,5.48,4.3,216,5.1,5.7,0.00006,0.00008,50.8,50.6,41,0,0,0.0,4.17,0.00,0.00
15min,AgWx,bigpiney,439,04SEP2019:06:00:00,39.9,12.45,35.4,35.1,35.7,37.6,34.7,89,91,85,0.628,32.6,34.1,31.4,3.508,4.7,212,5.2,6.0,0.00006,0.00007,50.8,50.6,41,0,0,0.0,4.17,0.00,0.00
15min,AgWx,bigpiney,439,04SEP2019:06:15:00,39.4,12.44,43.5,40.6,36.6,40.6,35.1,92,93,91,0.796,34.4,38.7,32.7,2.192,3.2,227,5.0,4.2,0.00004,0.00005,50.7,50.6,41,0,0,0.0,4.17,0.00,0.00
15min,AgWx,bigpiney,439,04SEP2019:06:30:00,39.3,12.44,34.6,35.6,40.7,43.9,35.6,84,93,78,0.589,36.1,39.8,31.1,2.894,2.2,199,41,4.5,0.00006,0.00008,50.6,50.6,41,0,0,0.0,4.17,0.00,0.00
15min,AgWx,bigpiney,439,04SEP2019:06:45:00,39.1,12.44,37.2,37.7,37.5,38.4,35.4,90,92,84,0.696,34.7,35.7,31.0,3.025,1.9,316,28,3.4,0.00004,0.00005,50.6,50.5,41,2,0,0.0,4.17,0.00,0.00
15min,AgWx,bigpiney,439,04SEP2019:07:00:00,39.0,12.45,36.9,36.4,38.5,40.0,36.4,92,93,89,0.646,36.2,38.0,33.4,1.863,2.7,272,31,3.8,0.00005,0.00007,50.5,50.5,41,10,0,0.0,4.17,0.00,0.00
15min,AgWx,bigpiney,439,04SEP2019:07:15:00,38.9,12.48,38.8,38.9,36.9,38.9,35.5,91,93,89,0.739,34.7,36.9,32.8,1.754,1.7,255,11,2.5,-0.00027,-0.00027,50.4,50.5,41,33,1,0.0,4.17,0.00,0.00